This is the latest recevied weather packets stored in our database for station/object W9PEM-13. If no packets are shown the sender has not sent any weather packets the latest 10 day(s).
| Time | Temp. | Humidity | Pressure | Rain* | Wind** | Luminosity | Snow |
|---|---|---|---|---|---|---|---|
| 1777577416 | 6.11° C | 76% | 985.6 hPa | 0 mm | - | 588 W/m² | - |
| 1777576816 | 6.11° C | 77% | 985.7 hPa | 0 mm | - | 857 W/m² | - |
| 1777576216 | 5.56° C | 78% | 985.8 hPa | 0 mm | - | 809 W/m² | - |
| 1777575616 | 6.11° C | 75% | 985.9 hPa | 0 mm | - | 655 W/m² | - |
| 1777575016 | 5.56° C | 79% | 985.8 hPa | 0 mm | - | 529 W/m² | - |
| 1777574416 | 5.56° C | 79% | 985.8 hPa | 0 mm | - | 401 W/m² | - |
| 1777573816 | 5° C | 80% | 985.8 hPa | 0 mm | - | 400 W/m² | - |
| 1777573216 | 5° C | 80% | 985.8 hPa | 0 mm | - | 458 W/m² | - |
| 1777572616 | 5.56° C | 80% | 985.9 hPa | 0 mm | - | 373 W/m² | - |
| 1777572015 | 5.56° C | 78% | 986 hPa | 0 mm | - | 381 W/m² | - |
| 1777571416 | 6.11° C | 77% | 986 hPa | 0 mm | - | 431 W/m² | - |
| 1777570816 | 6.67° C | 76% | 986.1 hPa | 0 mm | - | 459 W/m² | - |
| 1777570216 | 7.22° C | 74% | 986.2 hPa | 0 mm | - | 827 W/m² | - |
| 1777569616 | 7.22° C | 72% | 986.2 hPa | 0 mm | - | 1069 W/m² | - |
| 1777569015 | 6.67° C | 73% | 986.1 hPa | 0 mm | - | 560 W/m² | - |
| 1777568415 | 7.22° C | 72% | 986 hPa | 0 mm | - | 485 W/m² | - |
| 1777567815 | 7.78° C | 73% | 986 hPa | 0 mm | - | 840 W/m² | - |
| 1777567215 | 7.22° C | 71% | 986.1 hPa | 0 mm | - | 798 W/m² | - |
| 1777566616 | 7.78° C | 69% | 986.1 hPa | 0 mm | - | 441 W/m² | - |
| 1777566015 | 8.33° C | 52% | 986.1 hPa | 0 mm | - | 304 W/m² | - |
| 1777565415 | 8.33° C | 52% | 986.2 hPa | 0 mm | - | 363 W/m² | - |
| 1777564816 | 8.33° C | 52% | 986.2 hPa | 0 mm | - | 410 W/m² | - |
| 1777564216 | 8.33° C | 54% | 986.2 hPa | 0 mm | - | 353 W/m² | - |
| 1777563615 | 8.33° C | 51% | 986.2 hPa | 0 mm | - | 411 W/m² | - |
| 1777563015 | 8.33° C | 55% | 986.1 hPa | 0 mm | - | 451 W/m² | - |
* Rain latest hour (hover to see other rain measurements)
** Current wind speed in m/s (hover to see current wind gust speed)